STARLINK-32235, 60739

Orbit data source: Space-Track

STARLINK-32235, 60739 is a payload satellite owned by SpaceX/Seattle (US) in LEO that was launched on Wed, 28 Aug 2024 UTC via an FALCON 9 launch vehicle from the Air Force Eastern Test Range (AFETR). Payload-class satellites include a variety of spacecraft equipped with specific instruments for various scientific and technological missions. These include communications satellites like Starlink; space stations such as the ISS; scientific satellites like the Hubble; Earth observation satellites from companies like Planet Labs, Umbra, and HawkEye 360; GPS; miniature CubeSats for education and research; and military/defense satellites.

Loading next visibility...
Identifier
60739, 2024-152V
Orbit
LEO
Country
Flag of USUS
Related business
Manufacturer
SpaceX/Seattle
Mission
Operational Commercial Communications
Bus & Motor
STARLINK V2M, Unknown motor
Mass
730 kg wet, ~700 kg dry
Launch date (UTC)
2024-08-28 (2 years ago)
Launch vehicle
FALCON 9
Launch site
Air Force Eastern Test Range (AFETR)
Object type
Payload
Rocket body
Debris
Shape & HBR
Box + 2 Pan, 17.7 m
Radar Cross Section
33.884 m², Large (>1 m²)

Expand to show TLE details & history
Last TLE update: 9 hours ago

TLE from 9 hours ago
0 STARLINK-32235
1 60739U 24152V   26175.18758370  .00002414  00000-0  93619-4 0  9992
2 60739  53.1597 133.9350 0001121  92.2074 267.9055 15.30188269103102
Epoch: 2026-06-24T04:30Z
TLE epoch observation values (Epoch: 2026-06-24T04:30:07.231Z)
Latitude
-0.00004°
Longitude
154.05645°
Altitude
476.178 km
Speed
7.629 km/s
True Right ascension
08h 55m 44s
True Declination
0° 00' 00"
Sunlit
Object was in daylight at epoch
Visualization orbit readout
Latitude
Unknown
Longitude
Unknown
Altitude
Unknown
Speed
Unknown
Apparent Right ascension
Unknown
Apparent Declination
Unknown
Sunlit
N/A
Visualization observer readout
Local Sidereal Time
00:30:55
Azimuth
Unknown
Elevation
Unknown
Doppler factor
Unknown
Orbital elements
Apogee altitude
476.275 km
Perigee altitude
474.738 km
Semi-major axis
6,853.644 km
Eccentricity
0.00011
Inclination
53.1597°
RAAN
133.935°
Arg. of periapsis
92.2074°
True anomaly
267.89266°
Mean anomaly
267.9055°
Eccentric anomaly
267.89908°
Mean motion
3.82526 °/min
Orbital period
94.11 mins
BSTAR
0.000093619
Loading maneuver chart data...
Computing Atmospheric mass density...
Loading historical data...
Loading historical data...
Loading historical data...
Loading historical data...
Loading historical data...
Loading historical data...
Loading historical data...

Documentation

Showing up to 5 results
|